Location: Mount Kobau Star Party
(49.1167°N, 119.7333°W)
Time: 10:52:52
(UTC-07:00)

Envisat - Pass Details

Date: 16 April 2026
Orbit: 761 x 762 km, 98.4° (Epoch: 17 May)

Event Time Altitude Azimuth Distance (km) Brightness Sun altitude
Rises 02:02:47 0° 33° (NNE) 3,232 7.4 -29.0°
Reaches altitude 10° 02:06:58 10° 66° (ENE) 2,298 6.0 -28.8°
Maximum altitude 02:08:34 11° 85° (E) 2,198 5.6 -28.7°
Drops below altitude 10° 02:10:10 10° 104° (ESE) 2,292 5.5 -28.6°
Enters shadow 02:10:39 - 109° (ESE) 2,356 5.5 -28.6°
